{"data":{"norad_id":68176,"epoch":"2026-05-24T17:53:22.007040Z","epoch_age_seconds":107294,"freshness":"FRESH","line1":"1 68176U 26050K   26144.74539360  .00020498  00000+0  61613-3 0  9997","line2":"2 68176  53.1609 273.0479 0001047  79.3784 280.7337 15.34399837 12337","mean_motion":15.34399837,"eccentricity":0.0001047,"inclination_deg":53.1609,"raan_deg":273.0479,"arg_perigee_deg":79.3784,"mean_anomaly_deg":280.7337,"bstar":0.00061613,"rev_number":1233,"period_min":93.847768050825,"perigee_km":461.98748865363,"apogee_km":463.41996070137,"semimajor_km":6840.8407246775,"source":"CELESTRAK","updated_at":"2026-05-25T13:38:21.854125Z"}}